C/2002 B3 ( LINEAR )

Japanese version
Home page
Updated on July 29, 2002

---------------------------------------------------------------------

* Profile

Discovery Date January 26, 2002
Magnitude 19.5 mag
Discoverer Lincoln Laboratory Near-Earth Asteroid Research project

* Orbital Elements

T 2002 Jan. 14.4151 TT                                  MPCM
q   6.052462             (2000.0)            P               Q
                   Peri.  122.9251      +0.0420867      -0.4226917
                   Node   289.3856      +0.2218156      +0.8874389
e   1.0            Incl.   73.6796      +0.9741799      -0.1838039
From 45 observations 2002 Feb. 1-Mar. 11.

* Finding Charts

* Magnitudes Graph

        m1 = 7.5 + 5 log d + 10.0 log r

---------------------------------------------------------------------

The orbital elements are published at the MPC Ephemerides and Orbital Elements.
The charts are made with StellaNavigator Ver.2.0 for Windows (AstroArts / ASCII).
The magnitudes graphs are made with Comet for Windows.

---------------------------------------------------------------------

Copyright(C) Seiichi Yoshida (comet@aerith.net). All rights reserved.